Regional Weather Roundup
Issued by NWS

Home | Current Version | Previous Version | Text Only | Print | Product List | Glossary Off
Versions: 1 2 3 4 5 6 7 8 9 10 11 12 13 14 15 16 17 18 19 20 21 22 23 24 25 26 27 28 29 30 31 32 33 34 35 36 37 38 39 40 41 42 43 44 45 46 47 48 49 50

000
ASUS43 KLSX 240507
RWRMO

WEATHER SUMMARY FOR MISSOURI
NATIONAL WEATHER SERVICE SPRINGFIELD MO
1200 AM CDT THU APR 24 2014

NOTE: "FAIR" INDICATES FEW OR NO CLOUDS BELOW 12,000 FEET WITH NO
       SIGNIFICANT WEATHER AND/OR OBSTRUCTIONS TO VISIBILITY.
       CURRENT SKY AND/OR WEATHER CONDITIONS ARE NOT AVAILABLE FOR
       CHILLICOTHE AND FARMINGTON.

MOZ001>031-035>038-043-044-053-054-240600-
...NORTHERN AND WESTERN MISSOURI...

CITY           SKY/WX    TMP DP  RH WIND       PRES   REMARKS
KANSAS CTY INT CLOUDY    69  40  34 SE18G25   29.69F
KANSAS C DTWN  CLOUDY    70  40  33 SE9       29.69F
LEE`S SUMMIT   CLOUDY    68  40  35 S15G24    29.71F
ST JOSEPH      CLOUDY    63  40  42 SE10      29.68S
CHILLICOTHE      N/A     58  39  49 SE9       29.77F
KIRKSVILLE     PTCLDY    53  35  50 SE16      29.82F

$$
MOZ066>068-077>081-088>096-101>105-240600-
...SOUTHWEST MISSOURI...

CITY           SKY/WX    TMP DP  RH WIND       PRES   REMARKS
SPRINGFIELD    MOCLDY    64  44  48 SE17      29.82F
JOPLIN         CLOUDY    69  49  48 S17       29.78S

$$
MOZ032>034-039>042-045>050-055>058-069>072-240600-
...CENTRAL MISSOURI...

CITY           SKY/WX    TMP DP  RH WIND       PRES   REMARKS
COLUMBIA       MOCLDY    57  38  48 SE14      29.84F
JEFFERSON CITY CLOUDY    53  40  61 SE9       29.85F
ROLLA          MOCLDY    60  35  39 SE16G23   29.87F
SEDALIA        MOCLDY    63  40  42 SE15G26   29.77F
WHITEMAN AFB   PTCLDY    66  33  28 S15G23    29.76R
OSAGE BEACH    CLOUDY    64  36  34 SE8G17    29.86F

$$
MOZ051-052-059>065-240600-
...EAST CENTRAL MISSOURI...

CITY           SKY/WX    TMP DP  RH WIND       PRES   REMARKS
ST LOUIS INTL  PTCLDY    58  32  37 SE12      29.95S
SPIRIT OF STL  CLEAR     57  33  40 E8        29.93S
ST CHARLES     CLEAR     56  35  45 SE14      29.94S

$$
MOZ072>076-082>087-097>100-106>115-240600-
...SOUTH CENTRAL AND SOUTHEAST MISSOURI...

CITY           SKY/WX    TMP DP  RH WIND       PRES   REMARKS
CAPE GIRARDEAU CLEAR     54  38  54 E6        29.97S
FARMINGTON     CLEAR     50  36  57 SE5       29.97F
POPLAR BLUFF   PTCLDY    52  44  74 NE3       29.94F
WEST PLAINS    PTCLDY    59  36  42 SE10      29.92F

$$



USA.gov is the U.S. government's official web portal to all federal, state and local government web resources and services.